Time,TemperatureF,DewpointF,PressureIn,WindDirection,WindDirectionDegrees,WindSpeedMPH,WindSpeedGustMPH,Humidity,HourlyPrecipIn,Conditions,Clouds,dailyrainin,SoftwareType,DateUTC
2013-08-29 00:02:00,79.9,71.7,30.00,SSW,203,0.0,0.0,76,0.00,,,0.00,VWS V14.01,2013-08-29 04:02:00,
2013-08-29 00:05:00,79.8,71.6,30.00,SSW,204,0.0,0.0,76,0.00,,,0.00,VWS V14.01,2013-08-29 04:05:00,
2013-08-29 00:11:00,79.6,71.4,30.00,SSW,203,0.0,0.0,76,0.00,,,0.00,VWS V14.01,2013-08-29 04:11:00,
2013-08-29 00:17:00,79.5,71.7,30.00,SSW,203,0.0,1.0,77,0.00,,,0.00,VWS V14.01,2013-08-29 04:17:00,
2013-08-29 00:23:00,79.5,71.7,30.00,SSW,203,0.0,2.0,77,0.00,,,0.00,VWS V14.01,2013-08-29 04:23:00,
2013-08-29 00:26:00,79.5,71.7,30.00,SSW,204,0.0,1.0,77,0.00,,,0.00,VWS V14.01,2013-08-29 04:26:00,
2013-08-29 00:32:00,79.5,71.7,30.00,SSW,204,0.0,1.0,77,0.00,,,0.00,VWS V14.01,2013-08-29 04:32:00,
2013-08-29 00:38:00,79.4,71.6,30.00,SSW,203,0.0,1.0,77,0.00,,,0.00,VWS V14.01,2013-08-29 04:38:00,
2013-08-29 00:41:00,79.4,71.6,30.00,SSW,204,0.0,0.0,77,0.00,,,0.00,VWS V14.01,2013-08-29 04:41:00,
2013-08-29 00:47:00,79.3,71.5,30.00,SSW,203,0.0,1.0,77,0.00,,,0.00,VWS V14.01,2013-08-29 04:47:00,
2013-08-29 00:53:00,79.3,71.5,30.00,SSW,203,0.0,1.0,77,0.00,,,0.00,VWS V14.01,2013-08-29 04:53:00,
2013-08-29 00:58:00,79.3,71.1,30.00,SSW,207,0.0,4.0,76,0.00,,,0.00,VWS V14.01,2013-08-29 04:58:00,
2013-08-29 01:03:00,79.5,70.9,30.00,SSW,207,0.0,3.0,75,0.00,,,0.00,VWS V14.01,2013-08-29 05:03:00,
2013-08-29 01:08:00,79.6,71.0,30.00,SSW,210,3.0,5.0,75,0.00,,,0.00,VWS V14.01,2013-08-29 05:08:00,
2013-08-29 01:13:00,79.8,70.8,30.00,SW,224,3.0,5.0,74,0.00,,,0.00,VWS V14.01,2013-08-29 05:13:00,
2013-08-29 01:18:00,79.9,70.1,30.00,SSW,210,0.0,6.0,72,0.00,,,0.00,VWS V14.01,2013-08-29 05:18:00,
2013-08-29 01:23:00,80.0,70.6,30.00,SW,234,0.0,4.0,73,0.00,,,0.00,VWS V14.01,2013-08-29 05:23:00,
2013-08-29 01:28:00,80.0,70.6,30.00,SW,222,2.0,5.0,73,0.00,,,0.00,VWS V14.01,2013-08-29 05:28:00,
2013-08-29 01:33:00,80.0,70.6,30.00,SW,218,0.0,7.0,73,0.00,,,0.00,VWS V14.01,2013-08-29 05:33:00,
2013-08-29 01:38:00,79.9,70.1,30.00,SW,221,2.0,7.0,72,0.00,,,0.00,VWS V14.01,2013-08-29 05:38:00,
2013-08-29 01:43:00,79.9,69.7,30.00,SW,222,5.0,6.0,71,0.00,,,0.00,VWS V14.01,2013-08-29 05:43:00,
2013-08-29 01:48:00,79.9,69.7,30.00,SW,222,1.0,6.0,71,0.00,,,0.00,VWS V14.01,2013-08-29 05:48:00,
2013-08-29 01:53:00,79.8,69.6,30.00,SW,217,0.0,4.0,71,0.00,,,0.00,VWS V14.01,2013-08-29 05:53:00,
2013-08-29 01:58:00,79.8,69.6,29.99,SW,219,1.0,4.0,71,0.00,,,0.00,VWS V14.01,2013-08-29 05:58:00,
2013-08-29 02:03:00,79.8,69.6,29.99,SW,219,1.0,1.0,71,0.00,,,0.00,VWS V14.01,2013-08-29 06:03:00,
2013-08-29 02:09:00,79.7,69.9,29.99,SW,218,3.0,4.0,72,0.00,,,0.00,VWS V14.01,2013-08-29 06:09:00,
2013-08-29 02:15:00,79.6,70.2,29.99,SW,216,0.0,4.0,73,0.00,,,0.00,VWS V14.01,2013-08-29 06:15:00,
2013-08-29 02:21:00,79.5,70.5,29.99,SW,218,1.0,6.0,74,0.00,,,0.00,VWS V14.01,2013-08-29 06:21:00,
2013-08-29 02:27:00,79.5,70.9,29.99,SW,218,0.0,5.0,75,0.00,,,0.00,VWS V14.01,2013-08-29 06:27:00,
2013-08-29 02:33:00,79.4,70.8,29.99,SW,227,3.0,5.0,75,0.00,,,0.00,VWS V14.01,2013-08-29 06:33:00,
2013-08-29 02:38:00,79.4,70.4,29.99,SSW,212,3.0,6.0,74,0.00,,,0.00,VWS V14.01,2013-08-29 06:38:00,
2013-08-29 02:43:00,79.4,70.4,29.99,SSW,203,0.0,6.0,74,0.00,,,0.00,VWS V14.01,2013-08-29 06:43:00,
2013-08-29 02:48:00,79.4,70.8,29.98,SSW,211,1.0,4.0,75,0.00,,,0.00,VWS V14.01,2013-08-29 06:48:00,
2013-08-29 02:53:00,79.3,70.7,29.98,SSW,213,0.0,4.0,75,0.00,,,0.00,VWS V14.01,2013-08-29 06:53:00,
2013-08-29 02:58:00,79.3,71.1,29.98,SSW,213,0.0,3.0,76,0.00,,,0.00,VWS V14.01,2013-08-29 06:58:00,
2013-08-29 03:03:00,79.2,71.0,29.98,WSW,240,0.0,3.0,76,0.00,,,0.00,VWS V14.01,2013-08-29 07:03:00,
2013-08-29 03:08:00,79.1,70.5,29.98,SSW,212,0.0,4.0,75,0.00,,,0.00,VWS V14.01,2013-08-29 07:08:00,
2013-08-29 03:13:00,79.0,70.4,29.98,SW,236,1.0,3.0,75,0.00,,,0.00,VWS V14.01,2013-08-29 07:13:00,
2013-08-29 03:18:00,79.0,70.0,29.98,SSW,207,5.0,5.0,74,0.00,,,0.00,VWS V14.01,2013-08-29 07:18:00,
2013-08-29 03:23:00,79.0,70.0,29.98,SSW,206,0.0,7.0,74,0.00,,,0.00,VWS V14.01,2013-08-29 07:23:00,
2013-08-29 03:30:00,78.9,70.3,29.98,SW,216,2.0,4.0,75,0.00,,,0.00,VWS V14.01,2013-08-29 07:30:00,
2013-08-29 03:36:00,78.9,70.3,29.98,SW,219,3.0,5.0,75,0.00,,,0.00,VWS V14.01,2013-08-29 07:36:00,
2013-08-29 03:42:00,78.8,70.6,29.97,SW,218,2.0,6.0,76,0.00,,,0.00,VWS V14.01,2013-08-29 07:42:00,
2013-08-29 03:48:00,78.7,70.5,29.98,SW,218,0.0,4.0,76,0.00,,,0.00,VWS V14.01,2013-08-29 07:48:00,
2013-08-29 03:53:00,78.7,70.9,29.98,SW,218,1.0,4.0,77,0.00,,,0.00,VWS V14.01,2013-08-29 07:53:00,
2013-08-29 03:58:00,78.5,70.7,29.98,SW,216,1.0,4.0,77,0.00,,,0.00,VWS V14.01,2013-08-29 07:58:00,
2013-08-29 04:03:00,78.4,70.6,29.98,SW,217,0.0,4.0,77,0.00,,,0.00,VWS V14.01,2013-08-29 08:03:00,
2013-08-29 04:08:00,78.2,70.4,29.98,SW,228,1.0,5.0,77,0.00,,,0.00,VWS V14.01,2013-08-29 08:08:00,
2013-08-29 04:13:00,78.0,70.6,29.98,SSW,213,3.0,5.0,78,0.00,,,0.00,VWS V14.01,2013-08-29 08:13:00,
2013-08-29 04:18:00,78.0,70.6,29.98,SW,218,1.0,4.0,78,0.00,,,0.00,VWS V14.01,2013-08-29 08:18:00,
2013-08-29 04:23:00,77.7,70.3,29.98,SW,227,2.0,6.0,78,0.00,,,0.00,VWS V14.01,2013-08-29 08:23:00,
2013-08-29 04:28:00,77.6,70.6,29.97,WSW,237,0.0,4.0,79,0.00,,,0.00,VWS V14.01,2013-08-29 08:28:00,
2013-08-29 04:33:00,77.5,70.8,29.97,WSW,244,0.0,3.0,80,0.00,,,0.00,VWS V14.01,2013-08-29 08:33:00,
2013-08-29 04:38:00,77.4,70.8,29.97,WSW,244,0.0,3.0,80,0.00,,,0.00,VWS V14.01,2013-08-29 08:38:00,
2013-08-29 04:43:00,77.4,71.1,29.97,WSW,243,0.0,1.0,81,0.00,,,0.00,VWS V14.01,2013-08-29 08:43:00,
2013-08-29 04:48:00,77.3,70.7,29.98,WSW,237,0.0,4.0,80,0.00,,,0.00,VWS V14.01,2013-08-29 08:48:00,
2013-08-29 04:53:00,77.2,70.9,29.98,SW,226,3.0,4.0,81,0.00,,,0.00,VWS V14.01,2013-08-29 08:53:00,
2013-08-29 04:58:00,77.0,70.7,29.97,SW,214,0.0,5.0,81,0.00,,,0.00,VWS V14.01,2013-08-29 08:58:00,
2013-08-29 05:03:00,76.9,70.6,29.97,SW,216,0.0,4.0,81,0.00,,,0.00,VWS V14.01,2013-08-29 09:03:00,
2013-08-29 05:08:00,76.8,70.9,29.97,SSW,213,4.0,5.0,82,0.00,,,0.00,VWS V14.01,2013-08-29 09:08:00,
2013-08-29 05:13:00,76.7,70.8,29.98,SW,214,0.0,4.0,82,0.00,,,0.00,VWS V14.01,2013-08-29 09:13:00,
2013-08-29 05:18:00,76.7,71.2,29.98,SW,214,3.0,3.0,83,0.00,,,0.00,VWS V14.01,2013-08-29 09:18:00,
2013-08-29 05:23:00,76.6,71.1,29.97,SW,214,0.0,3.0,83,0.00,,,0.00,VWS V14.01,2013-08-29 09:23:00,
2013-08-29 05:28:00,76.6,71.1,29.97,SW,214,2.0,3.0,83,0.00,,,0.00,VWS V14.01,2013-08-29 09:28:00,
2013-08-29 05:33:00,76.5,71.3,29.97,SW,214,0.0,4.0,84,0.00,,,0.00,VWS V14.01,2013-08-29 09:33:00,
2013-08-29 05:38:00,76.4,71.2,29.97,SW,214,0.0,3.0,84,0.00,,,0.00,VWS V14.01,2013-08-29 09:38:00,
2013-08-29 05:43:00,76.4,71.2,29.97,SW,214,0.0,3.0,84,0.00,,,0.00,VWS V14.01,2013-08-29 09:43:00,
2013-08-29 05:48:00,76.4,71.6,29.98,SW,214,1.0,4.0,85,0.00,,,0.00,VWS V14.01,2013-08-29 09:48:00,
2013-08-29 05:53:00,76.4,71.6,29.98,SW,214,0.0,4.0,85,0.00,,,0.00,VWS V14.01,2013-08-29 09:53:00,
2013-08-29 05:58:00,76.4,71.6,29.98,SW,214,0.0,3.0,85,0.00,,,0.00,VWS V14.01,2013-08-29 09:58:00,
2013-08-29 06:03:00,76.5,71.7,29.97,SSW,213,0.0,3.0,85,0.00,,,0.00,VWS V14.01,2013-08-29 10:03:00,
2013-08-29 06:08:00,76.4,71.6,29.97,SSW,213,2.0,3.0,85,0.00,,,0.00,VWS V14.01,2013-08-29 10:08:00,
2013-08-29 06:13:00,76.4,71.6,29.98,SW,214,0.0,4.0,85,0.00,,,0.00,VWS V14.01,2013-08-29 10:13:00,
2013-08-29 06:19:00,76.4,71.6,29.98,SSW,213,1.0,3.0,85,0.00,,,0.00,VWS V14.01,2013-08-29 10:19:00,
2013-08-29 06:25:00,76.4,71.9,29.98,SW,214,0.0,1.0,86,0.00,,,0.00,VWS V14.01,2013-08-29 10:25:00,
2013-08-29 06:31:00,76.5,72.0,29.98,SSW,213,0.0,3.0,86,0.00,,,0.00,VWS V14.01,2013-08-29 10:31:00,
2013-08-29 06:37:00,76.5,72.0,29.98,SW,214,0.0,1.0,86,0.00,,,0.00,VWS V14.01,2013-08-29 10:37:00,
2013-08-29 06:43:00,76.4,71.6,29.98,SSW,213,0.0,3.0,85,0.00,,,0.00,VWS V14.01,2013-08-29 10:43:00,
2013-08-29 06:48:00,76.4,71.6,29.99,SW,214,0.0,2.0,85,0.00,,,0.00,VWS V14.01,2013-08-29 10:48:00,
2013-08-29 06:53:00,76.5,71.7,29.99,SW,214,0.0,1.0,85,0.00,,,0.00,VWS V14.01,2013-08-29 10:53:00,
2013-08-29 06:58:00,76.5,72.0,29.99,SSW,213,0.0,1.0,86,0.00,,,0.00,VWS V14.01,2013-08-29 10:58:00,
2013-08-29 07:03:00,76.5,72.0,29.99,SW,214,0.0,2.0,86,0.00,,,0.00,VWS V14.01,2013-08-29 11:03:00,
2013-08-29 07:08:00,76.5,72.0,29.99,SW,214,1.0,3.0,86,0.00,,,0.00,VWS V14.01,2013-08-29 11:08:00,
2013-08-29 07:13:00,76.6,71.8,29.99,SW,214,0.0,3.0,85,0.00,,,0.00,VWS V14.01,2013-08-29 11:13:00,
2013-08-29 07:18:00,76.6,71.8,30.00,SSW,193,0.0,4.0,85,0.00,,,0.00,VWS V14.01,2013-08-29 11:18:00,
2013-08-29 07:23:00,76.7,71.9,30.00,SSW,194,0.0,2.0,85,0.00,,,0.00,VWS V14.01,2013-08-29 11:23:00,
2013-08-29 07:28:00,76.7,71.9,30.00,SSW,194,0.0,3.0,85,0.00,,,0.00,VWS V14.01,2013-08-29 11:28:00,
2013-08-29 07:33:00,76.8,71.9,30.00,SSW,194,0.0,1.0,85,0.00,,,0.00,VWS V14.01,2013-08-29 11:33:00,
2013-08-29 07:38:00,76.9,72.1,30.00,SSW,194,0.0,1.0,85,0.00,,,0.00,VWS V14.01,2013-08-29 11:38:00,
2013-08-29 07:43:00,77.0,72.2,30.00,SSW,204,0.0,4.0,85,0.00,,,0.00,VWS V14.01,2013-08-29 11:43:00,
2013-08-29 07:48:00,77.1,72.2,30.00,SSW,204,0.0,1.0,85,0.00,,,0.00,VWS V14.01,2013-08-29 11:48:00,
2013-08-29 07:53:00,77.1,72.2,30.00,SSW,206,0.0,4.0,85,0.00,,,0.00,VWS V14.01,2013-08-29 11:53:00,
2013-08-29 07:58:00,77.3,72.4,30.00,SSW,206,0.0,1.0,85,0.00,,,0.00,VWS V14.01,2013-08-29 11:58:00,
2013-08-29 08:03:00,77.4,72.5,30.00,SSW,206,0.0,1.0,85,0.00,,,0.00,VWS V14.01,2013-08-29 12:03:00,
2013-08-29 08:08:00,77.5,72.6,30.00,SSW,208,1.0,5.0,85,0.00,,,0.00,VWS V14.01,2013-08-29 12:08:00,
2013-08-29 08:13:00,77.5,72.6,30.01,SSW,208,0.0,4.0,85,0.00,,,0.00,VWS V14.01,2013-08-29 12:13:00,
2013-08-29 08:18:00,77.5,72.6,30.01,SSW,208,1.0,4.0,85,0.00,,,0.00,VWS V14.01,2013-08-29 12:18:00,
2013-08-29 08:23:00,77.6,73.1,30.01,SSW,208,0.0,3.0,86,0.00,,,0.00,VWS V14.01,2013-08-29 12:23:00,
2013-08-29 08:28:00,77.9,73.4,30.00,SW,214,0.0,1.0,86,0.00,,,0.00,VWS V14.01,2013-08-29 12:28:00,
2013-08-29 08:33:00,78.0,73.1,30.00,SW,216,0.0,3.0,85,0.00,,,0.00,VWS V14.01,2013-08-29 12:33:00,
2013-08-29 08:38:00,78.0,73.1,30.00,West,262,0.0,4.0,85,0.00,,,0.00,VWS V14.01,2013-08-29 12:38:00,
2013-08-29 08:43:00,78.2,73.7,30.01,West,274,0.0,2.0,86,0.00,,,0.00,VWS V14.01,2013-08-29 12:43:00,
2013-08-29 08:48:00,78.4,73.9,30.01,West,274,0.0,1.0,86,0.00,,,0.00,VWS V14.01,2013-08-29 12:48:00,
2013-08-29 08:53:00,78.6,73.7,30.01,WSW,256,2.0,3.0,85,0.00,,,0.00,VWS V14.01,2013-08-29 12:53:00,
2013-08-29 08:58:00,78.9,74.0,30.01,SSW,213,0.0,4.0,85,0.00,,,0.00,VWS V14.01,2013-08-29 12:58:00,
2013-08-29 09:03:00,79.2,73.9,30.01,SSW,213,1.0,5.0,84,0.00,,,0.00,VWS V14.01,2013-08-29 13:03:00,
2013-08-29 09:08:00,79.4,74.2,30.00,SW,217,0.0,4.0,84,0.00,,,0.00,VWS V14.01,2013-08-29 13:08:00,
2013-08-29 09:13:00,79.6,74.3,30.00,SW,222,1.0,1.0,84,0.00,,,0.00,VWS V14.01,2013-08-29 13:13:00,
2013-08-29 09:18:00,79.9,74.6,30.00,SW,222,1.0,3.0,84,0.00,,,0.00,VWS V14.01,2013-08-29 13:18:00,
2013-08-29 09:23:00,80.1,74.5,30.00,SW,220,3.0,4.0,83,0.00,,,0.00,VWS V14.01,2013-08-29 13:23:00,
2013-08-29 09:28:00,80.4,74.8,30.00,SW,234,4.0,5.0,83,0.00,,,0.00,VWS V14.01,2013-08-29 13:28:00,
2013-08-29 09:33:00,80.5,74.9,30.00,SW,219,3.0,4.0,83,0.00,,,0.00,VWS V14.01,2013-08-29 13:33:00,
2013-08-29 09:38:00,80.8,75.2,30.00,SW,220,0.0,4.0,83,0.00,,,0.00,VWS V14.01,2013-08-29 13:38:00,
2013-08-29 09:43:00,81.0,75.0,30.00,WNW,283,0.0,4.0,82,0.00,,,0.00,VWS V14.01,2013-08-29 13:43:00,
2013-08-29 09:48:00,81.3,75.3,30.00,WNW,283,2.0,2.0,82,0.00,,,0.00,VWS V14.01,2013-08-29 13:48:00,
2013-08-29 09:53:00,81.5,74.7,30.00,SW,218,2.0,4.0,80,0.00,,,0.00,VWS V14.01,2013-08-29 13:53:00,
2013-08-29 09:58:00,81.8,75.0,30.00,SSW,209,1.0,5.0,80,0.00,,,0.00,VWS V14.01,2013-08-29 13:58:00,
2013-08-29 10:03:00,82.0,74.8,30.00,West,278,3.0,3.0,79,0.00,,,0.00,VWS V14.01,2013-08-29 14:03:00,
2013-08-29 10:08:00,82.3,74.8,30.00,WSW,256,0.0,3.0,78,0.00,,,0.00,VWS V14.01,2013-08-29 14:08:00,
2013-08-29 10:13:00,82.6,74.7,30.00,WSW,254,0.0,3.0,77,0.00,,,0.00,VWS V14.01,2013-08-29 14:13:00,
2013-08-29 10:18:00,82.9,74.9,30.00,West,273,0.0,2.0,77,0.00,,,0.00,VWS V14.01,2013-08-29 14:18:00,
2013-08-29 10:23:00,83.1,74.8,30.00,West,273,1.0,3.0,76,0.00,,,0.00,VWS V14.01,2013-08-29 14:23:00,
2013-08-29 10:28:00,83.3,74.2,30.00,WNW,293,0.0,4.0,74,0.00,,,0.00,VWS V14.01,2013-08-29 14:28:00,
2013-08-29 10:33:00,83.5,74.8,30.00,WNW,285,0.0,4.0,75,0.00,,,0.00,VWS V14.01,2013-08-29 14:33:00,
2013-08-29 10:38:00,83.9,74.3,30.00,SW,235,0.0,4.0,73,0.00,,,0.00,VWS V14.01,2013-08-29 14:38:00,
2013-08-29 10:43:00,84.1,74.5,30.00,WSW,245,2.0,5.0,73,0.00,,,0.00,VWS V14.01,2013-08-29 14:43:00,
2013-08-29 10:48:00,84.3,73.9,30.00,West,274,0.0,4.0,71,0.00,,,0.00,VWS V14.01,2013-08-29 14:48:00,
2013-08-29 10:53:00,84.4,74.0,30.00,SW,214,1.0,5.0,71,0.00,,,0.00,VWS V14.01,2013-08-29 14:53:00,
2013-08-29 10:58:00,84.6,73.7,30.00,WSW,258,0.0,3.0,70,0.00,,,0.00,VWS V14.01,2013-08-29 14:58:00,
2013-08-29 11:03:00,85.1,73.8,30.00,WNW,282,0.0,3.0,69,0.00,,,0.00,VWS V14.01,2013-08-29 15:03:00,
2013-08-29 11:08:00,85.6,74.3,30.00,West,272,3.0,3.0,69,0.00,,,0.00,VWS V14.01,2013-08-29 15:08:00,
2013-08-29 11:13:00,85.9,73.2,30.00,SW,225,0.0,6.0,66,0.00,,,0.00,VWS V14.01,2013-08-29 15:13:00,
2013-08-29 11:18:00,86.0,72.4,29.99,WSW,248,0.0,3.0,64,0.00,,,0.00,VWS V14.01,2013-08-29 15:18:00,
2013-08-29 11:23:00,86.3,71.8,29.99,WNW,283,0.0,3.0,62,0.00,,,0.00,VWS V14.01,2013-08-29 15:23:00,
2013-08-29 11:28:00,86.3,72.2,29.99,WSW,254,3.0,5.0,63,0.00,,,0.00,VWS V14.01,2013-08-29 15:28:00,
2013-08-29 11:33:00,86.5,72.4,29.99,WNW,284,1.0,5.0,63,0.00,,,0.00,VWS V14.01,2013-08-29 15:33:00,
2013-08-29 11:38:00,86.7,71.7,29.99,WSW,239,3.0,5.0,61,0.00,,,0.00,VWS V14.01,2013-08-29 15:38:00,
2013-08-29 11:43:00,87.0,72.4,29.98,SSW,211,0.0,5.0,62,0.00,,,0.00,VWS V14.01,2013-08-29 15:43:00,
2013-08-29 11:48:00,87.4,72.3,29.99,SW,235,2.0,7.0,61,0.00,,,0.00,VWS V14.01,2013-08-29 15:48:00,
2013-08-29 11:53:00,87.7,71.6,29.98,SW,235,3.0,5.0,59,0.00,,,0.00,VWS V14.01,2013-08-29 15:53:00,
2013-08-29 11:58:00,87.9,72.8,29.98,WSW,240,2.0,5.0,61,0.00,,,0.00,VWS V14.01,2013-08-29 15:58:00,
2013-08-29 12:03:00,87.8,72.2,29.98,SSW,203,2.0,6.0,60,0.00,,,0.00,VWS V14.01,2013-08-29 16:03:00,
2013-08-29 12:08:00,88.0,72.4,29.98,West,260,1.0,6.0,60,0.00,,,0.00,VWS V14.01,2013-08-29 16:08:00,
2013-08-29 12:13:00,88.2,71.6,29.98,West,276,0.0,5.0,58,0.00,,,0.00,VWS V14.01,2013-08-29 16:13:00,
2013-08-29 12:18:00,88.2,71.6,29.98,WSW,240,0.0,5.0,58,0.00,,,0.00,VWS V14.01,2013-08-29 16:18:00,
2013-08-29 12:23:00,88.4,71.8,29.97,SW,234,0.0,7.0,58,0.00,,,0.00,VWS V14.01,2013-08-29 16:23:00,
2013-08-29 12:28:00,88.5,71.3,29.98,WSW,258,2.0,5.0,57,0.00,,,0.00,VWS V14.01,2013-08-29 16:28:00,
2013-08-29 12:33:00,88.7,70.5,29.97,SW,224,2.0,5.0,55,0.00,,,0.00,VWS V14.01,2013-08-29 16:33:00,
2013-08-29 12:38:00,89.0,70.2,29.97,SW,224,0.0,5.0,54,0.00,,,0.00,VWS V14.01,2013-08-29 16:38:00,
2013-08-29 12:43:00,89.3,70.5,29.97,WSW,243,0.0,9.0,54,0.00,,,0.00,VWS V14.01,2013-08-29 16:43:00,
2013-08-29 12:48:00,89.7,69.8,29.97,West,262,0.0,11.0,52,0.00,,,0.00,VWS V14.01,2013-08-29 16:48:00,
2013-08-29 12:53:00,89.6,70.2,29.97,SW,224,4.0,7.0,53,0.00,,,0.00,VWS V14.01,2013-08-29 16:53:00,
2013-08-29 12:58:00,89.6,69.7,29.97,West,259,1.0,6.0,52,0.00,,,0.00,VWS V14.01,2013-08-29 16:58:00,
2013-08-29 13:03:00,89.6,69.7,29.96,WSW,239,3.0,6.0,52,0.00,,,0.00,VWS V14.01,2013-08-29 17:03:00,
2013-08-29 13:08:00,89.6,70.8,29.96,SW,236,3.0,8.0,54,0.00,,,0.00,VWS V14.01,2013-08-29 17:08:00,
2013-08-29 13:13:00,89.5,69.6,29.96,SW,216,2.0,7.0,52,0.00,,,0.00,VWS V14.01,2013-08-29 17:13:00,
2013-08-29 13:18:00,89.7,70.3,29.96,WSW,239,1.0,6.0,53,0.00,,,0.00,VWS V14.01,2013-08-29 17:18:00,
2013-08-29 13:23:00,89.8,69.8,29.96,NW,320,2.0,7.0,52,0.00,,,0.00,VWS V14.01,2013-08-29 17:23:00,
2013-08-29 13:28:00,89.8,69.8,29.96,SW,215,0.0,9.0,52,0.00,,,0.00,VWS V14.01,2013-08-29 17:28:00,
2013-08-29 13:33:00,90.0,70.6,29.96,WSW,239,3.0,8.0,53,0.00,,,0.00,VWS V14.01,2013-08-29 17:33:00,
2013-08-29 13:38:00,90.2,70.2,29.95,WSW,258,3.0,5.0,52,0.00,,,0.00,VWS V14.01,2013-08-29 17:38:00,
2013-08-29 13:43:00,90.3,69.7,29.95,West,271,5.0,6.0,51,0.00,,,0.00,VWS V14.01,2013-08-29 17:43:00,
2013-08-29 13:48:00,90.3,70.3,29.95,WSW,250,3.0,5.0,52,0.00,,,0.00,VWS V14.01,2013-08-29 17:48:00,
2013-08-29 13:53:00,90.6,70.0,29.95,SW,235,0.0,6.0,51,0.00,,,0.00,VWS V14.01,2013-08-29 17:53:00,
2013-08-29 13:58:00,90.8,70.8,29.95,SSW,196,2.0,6.0,52,0.00,,,0.00,VWS V14.01,2013-08-29 17:58:00,
2013-08-29 14:03:00,90.2,69.6,29.95,SW,229,0.0,4.0,51,0.00,,,0.00,VWS V14.01,2013-08-29 18:03:00,
2013-08-29 14:08:00,90.2,70.2,29.95,SW,214,1.0,5.0,52,0.00,,,0.00,VWS V14.01,2013-08-29 18:08:00,
2013-08-29 14:13:00,90.5,69.9,29.95,SW,226,1.0,4.0,51,0.00,,,0.00,VWS V14.01,2013-08-29 18:13:00,
2013-08-29 14:18:00,90.6,69.4,29.95,West,270,0.0,7.0,50,0.00,,,0.00,VWS V14.01,2013-08-29 18:18:00,
2013-08-29 14:23:00,90.9,70.8,29.95,SW,226,3.0,5.0,52,0.00,,,0.00,VWS V14.01,2013-08-29 18:23:00,
2013-08-29 14:28:00,91.1,70.5,29.94,WNW,283,0.0,6.0,51,0.00,,,0.00,VWS V14.01,2013-08-29 18:28:00,
2013-08-29 14:33:00,91.1,70.5,29.94,WSW,239,0.0,5.0,51,0.00,,,0.00,VWS V14.01,2013-08-29 18:33:00,
2013-08-29 14:38:00,91.7,70.4,29.94,SW,228,2.0,6.0,50,0.00,,,0.00,VWS V14.01,2013-08-29 18:38:00,
2013-08-29 14:43:00,91.5,69.1,29.94,SSW,206,2.0,5.0,48,0.00,,,0.00,VWS V14.01,2013-08-29 18:43:00,
2013-08-29 14:48:00,91.5,69.7,29.94,West,269,1.0,5.0,49,0.00,,,0.00,VWS V14.01,2013-08-29 18:48:00,
2013-08-29 14:53:00,91.6,69.8,29.93,SW,234,1.0,4.0,49,0.00,,,0.00,VWS V14.01,2013-08-29 18:53:00,
2013-08-29 14:58:00,91.9,70.0,29.93,SW,227,7.0,7.0,49,0.00,,,0.00,VWS V14.01,2013-08-29 18:58:00,
2013-08-29 15:03:00,91.6,69.2,29.93,West,276,2.0,9.0,48,0.00,,,0.00,VWS V14.01,2013-08-29 19:03:00,
2013-08-29 15:08:00,91.6,69.2,29.93,West,265,0.0,2.0,48,0.00,,,0.00,VWS V14.01,2013-08-29 19:08:00,
2013-08-29 15:13:00,92.0,69.5,29.92,SSW,208,0.0,4.0,48,0.00,,,0.00,VWS V14.01,2013-08-29 19:13:00,
2013-08-29 15:18:00,92.3,69.8,29.92,West,260,1.0,4.0,48,0.00,,,0.00,VWS V14.01,2013-08-29 19:18:00,
2013-08-29 15:23:00,92.2,69.1,29.92,SW,218,2.0,5.0,47,0.00,,,0.00,VWS V14.01,2013-08-29 19:23:00,
2013-08-29 15:28:00,92.2,69.1,29.92,West,262,0.0,4.0,47,0.00,,,0.00,VWS V14.01,2013-08-29 19:28:00,
2013-08-29 15:33:00,92.0,70.1,29.92,WSW,251,2.0,5.0,49,0.00,,,0.00,VWS V14.01,2013-08-29 19:33:00,
2013-08-29 15:38:00,92.3,70.4,29.92,West,266,1.0,5.0,49,0.00,,,0.00,VWS V14.01,2013-08-29 19:38:00,
2013-08-29 15:43:00,91.9,70.6,29.91,West,271,0.0,4.0,50,0.00,,,0.00,VWS V14.01,2013-08-29 19:43:00,
2013-08-29 15:48:00,91.4,70.2,29.91,SW,223,1.0,5.0,50,0.00,,,0.00,VWS V14.01,2013-08-29 19:48:00,
2013-08-29 15:53:00,91.2,69.4,29.91,WSW,241,2.0,5.0,49,0.00,,,0.00,VWS V14.01,2013-08-29 19:53:00,
2013-08-29 15:58:00,91.2,69.4,29.91,WSW,241,2.0,4.0,49,0.00,,,0.00,VWS V14.01,2013-08-29 19:58:00,
2013-08-29 16:03:00,91.1,69.9,29.90,WSW,237,0.0,6.0,50,0.00,,,0.00,VWS V14.01,2013-08-29 20:03:00,
2013-08-29 16:08:00,91.5,70.2,29.90,West,278,0.0,4.0,50,0.00,,,0.00,VWS V14.01,2013-08-29 20:08:00,
2013-08-29 16:13:00,91.7,69.8,29.90,WNW,287,1.0,3.0,49,0.00,,,0.00,VWS V14.01,2013-08-29 20:13:00,
2013-08-29 16:18:00,91.8,69.3,29.90,WSW,244,0.0,4.0,48,0.00,,,0.00,VWS V14.01,2013-08-29 20:18:00,
2013-08-29 16:23:00,92.2,70.9,29.90,WSW,254,1.0,4.0,50,0.00,,,0.00,VWS V14.01,2013-08-29 20:23:00,
2013-08-29 16:28:00,92.4,69.9,29.90,West,266,2.0,7.0,48,0.00,,,0.00,VWS V14.01,2013-08-29 20:28:00,
2013-08-29 16:33:00,92.1,70.2,29.90,WSW,237,1.0,5.0,49,0.00,,,0.00,VWS V14.01,2013-08-29 20:33:00,
2013-08-29 16:38:00,92.2,70.9,29.90,SW,226,0.0,3.0,50,0.00,,,0.00,VWS V14.01,2013-08-29 20:38:00,
2013-08-29 16:43:00,92.4,71.1,29.90,SW,222,2.0,4.0,50,0.00,,,0.00,VWS V14.01,2013-08-29 20:43:00,
2013-08-29 16:48:00,92.2,70.3,29.90,SW,222,0.0,2.0,49,0.00,,,0.00,VWS V14.01,2013-08-29 20:48:00,
2013-08-29 16:53:00,92.0,70.7,29.90,WSW,239,1.0,3.0,50,0.00,,,0.00,VWS V14.01,2013-08-29 20:53:00,
2013-08-29 16:58:00,92.0,70.1,29.90,West,270,1.0,4.0,49,0.00,,,0.00,VWS V14.01,2013-08-29 20:58:00,
2013-08-29 17:03:00,92.0,71.3,29.90,WSW,241,0.0,3.0,51,0.00,,,0.00,VWS V14.01,2013-08-29 21:03:00,
2013-08-29 17:08:00,92.2,70.9,29.90,SW,220,1.0,3.0,50,0.00,,,0.00,VWS V14.01,2013-08-29 21:08:00,
2013-08-29 17:13:00,92.2,70.9,29.90,WSW,255,2.0,2.0,50,0.00,,,0.00,VWS V14.01,2013-08-29 21:13:00,
2013-08-29 17:18:00,91.6,70.3,29.90,WSW,255,0.0,3.0,50,0.00,,,0.00,VWS V14.01,2013-08-29 21:18:00,
2013-08-29 17:23:00,91.1,70.5,29.90,WSW,256,0.0,1.0,51,0.00,,,0.00,VWS V14.01,2013-08-29 21:23:00,
2013-08-29 17:28:00,91.0,70.4,29.90,West,260,0.0,2.0,51,0.00,,,0.00,VWS V14.01,2013-08-29 21:28:00,
2013-08-29 17:33:00,91.3,69.5,29.90,SW,223,0.0,4.0,49,0.00,,,0.00,VWS V14.01,2013-08-29 21:33:00,
2013-08-29 17:38:00,91.6,69.2,29.90,WNW,285,0.0,4.0,48,0.00,,,0.00,VWS V14.01,2013-08-29 21:38:00,
2013-08-29 17:43:00,91.9,69.4,29.90,WNW,287,0.0,3.0,48,0.00,,,0.00,VWS V14.01,2013-08-29 21:43:00,
2013-08-29 17:48:00,91.7,69.8,29.90,SSW,199,0.0,4.0,49,0.00,,,0.00,VWS V14.01,2013-08-29 21:48:00,
2013-08-29 17:53:00,91.6,70.3,29.89,SSW,201,0.0,3.0,50,0.00,,,0.00,VWS V14.01,2013-08-29 21:53:00,
2013-08-29 17:58:00,91.5,70.2,29.89,SSW,212,0.0,1.0,50,0.00,,,0.00,VWS V14.01,2013-08-29 21:58:00,
2013-08-29 18:03:00,91.5,70.2,29.89,SSW,212,1.0,1.0,50,0.00,,,0.00,VWS V14.01,2013-08-29 22:03:00,
2013-08-29 18:08:00,91.7,69.8,29.89,SSW,213,0.0,1.0,49,0.00,,,0.00,VWS V14.01,2013-08-29 22:08:00,
2013-08-29 18:13:00,91.8,70.5,29.89,SSW,213,0.0,1.0,50,0.00,,,0.00,VWS V14.01,2013-08-29 22:13:00,
2013-08-29 18:18:00,91.8,69.9,29.89,SSW,212,0.0,1.0,49,0.00,,,0.00,VWS V14.01,2013-08-29 22:18:00,
2013-08-29 18:23:00,91.8,69.3,29.89,SSW,213,0.0,1.0,48,0.00,,,0.00,VWS V14.01,2013-08-29 22:23:00,
2013-08-29 18:28:00,91.7,70.4,29.89,SSW,213,0.0,1.0,50,0.00,,,0.00,VWS V14.01,2013-08-29 22:28:00,
2013-08-29 18:33:00,91.5,70.2,29.89,WNW,289,2.0,2.0,50,0.00,,,0.00,VWS V14.01,2013-08-29 22:33:00,
2013-08-29 18:38:00,91.4,69.6,29.89,West,276,0.0,2.0,49,0.00,,,0.00,VWS V14.01,2013-08-29 22:38:00,
2013-08-29 18:43:00,91.2,69.4,29.89,WSW,237,0.0,4.0,49,0.00,,,0.00,VWS V14.01,2013-08-29 22:43:00,
2013-08-29 18:48:00,91.0,69.8,29.89,WSW,237,0.0,2.0,50,0.00,,,0.00,VWS V14.01,2013-08-29 22:48:00,
2013-08-29 18:53:00,90.8,70.2,29.89,WSW,248,0.0,1.0,51,0.00,,,0.00,VWS V14.01,2013-08-29 22:53:00,
2013-08-29 18:58:00,90.7,70.1,29.89,WSW,247,0.0,3.0,51,0.00,,,0.00,VWS V14.01,2013-08-29 22:58:00,
2013-08-29 19:03:00,90.7,70.1,29.89,WSW,248,0.0,1.0,51,0.00,,,0.00,VWS V14.01,2013-08-29 23:03:00,
2013-08-29 19:08:00,90.7,70.1,29.89,WSW,248,0.0,1.0,51,0.00,,,0.00,VWS V14.01,2013-08-29 23:08:00,
2013-08-29 19:13:00,90.6,70.0,29.89,WSW,248,0.0,1.0,51,0.00,,,0.00,VWS V14.01,2013-08-29 23:13:00,
2013-08-29 19:18:00,90.5,69.9,29.89,WSW,248,0.0,0.0,51,0.00,,,0.00,VWS V14.01,2013-08-29 23:18:00,
2013-08-29 19:23:00,90.2,70.2,29.89,WSW,248,1.0,1.0,52,0.00,,,0.00,VWS V14.01,2013-08-29 23:23:00,
2013-08-29 19:28:00,90.0,70.0,29.89,WSW,248,0.0,1.0,52,0.00,,,0.00,VWS V14.01,2013-08-29 23:28:00,
2013-08-29 19:33:00,89.7,70.3,29.89,WSW,248,0.0,0.0,53,0.00,,,0.00,VWS V14.01,2013-08-29 23:33:00,
2013-08-29 19:39:00,89.4,70.6,29.90,WSW,248,0.0,1.0,54,0.00,,,0.00,VWS V14.01,2013-08-29 23:39:00,
2013-08-29 19:45:00,89.2,70.4,29.90,WSW,248,0.0,0.0,54,0.00,,,0.00,VWS V14.01,2013-08-29 23:45:00,
2013-08-29 19:51:00,88.9,70.7,29.90,WSW,248,0.0,0.0,55,0.00,,,0.00,VWS V14.01,2013-08-29 23:51:00,
2013-08-29 19:57:00,88.7,71.0,29.90,WSW,247,0.0,1.0,56,0.00,,,0.00,VWS V14.01,2013-08-29 23:57:00,
2013-08-29 20:03:00,88.5,71.3,29.90,WSW,248,0.0,0.0,57,0.00,,,0.00,VWS V14.01,2013-08-30 00:03:00,
2013-08-29 20:08:00,88.3,71.2,29.90,WSW,248,0.0,0.0,57,0.00,,,0.00,VWS V14.01,2013-08-30 00:08:00,
2013-08-29 20:13:00,88.1,71.5,29.90,WSW,248,0.0,0.0,58,0.00,,,0.00,VWS V14.01,2013-08-30 00:13:00,
2013-08-29 20:18:00,87.9,71.3,29.90,WSW,248,0.0,1.0,58,0.00,,,0.00,VWS V14.01,2013-08-30 00:18:00,
2013-08-29 20:25:00,87.7,71.6,29.90,WSW,247,0.0,0.0,59,0.00,,,0.00,VWS V14.01,2013-08-30 00:25:00,
2013-08-29 20:31:00,87.5,71.9,29.90,WSW,248,0.0,1.0,60,0.00,,,0.00,VWS V14.01,2013-08-30 00:31:00,
2013-08-29 20:37:00,87.4,71.8,29.90,WSW,248,0.0,0.0,60,0.00,,,0.00,VWS V14.01,2013-08-30 00:37:00,
2013-08-29 20:43:00,87.2,72.1,29.90,WSW,248,0.0,1.0,61,0.00,,,0.00,VWS V14.01,2013-08-30 00:43:00,
2013-08-29 20:48:00,87.0,71.9,29.90,WSW,248,0.0,0.0,61,0.00,,,0.00,VWS V14.01,2013-08-30 00:48:00,
2013-08-29 20:53:00,86.9,71.8,29.90,WSW,248,0.0,0.0,61,0.00,,,0.00,VWS V14.01,2013-08-30 00:53:00,
2013-08-29 20:58:00,86.8,72.2,29.90,WSW,247,0.0,0.0,62,0.00,,,0.00,VWS V14.01,2013-08-30 00:58:00,
2013-08-29 21:03:00,86.8,72.7,29.91,WSW,248,0.0,1.0,63,0.00,,,0.00,VWS V14.01,2013-08-30 01:03:00,
2013-08-29 21:08:00,86.7,72.6,29.91,WSW,248,0.0,1.0,63,0.00,,,0.00,VWS V14.01,2013-08-30 01:08:00,
2013-08-29 21:13:00,86.6,73.4,29.91,WSW,248,0.0,0.0,65,0.00,,,0.00,VWS V14.01,2013-08-30 01:13:00,
2013-08-29 21:18:00,86.5,74.7,29.91,WSW,247,0.0,1.0,68,0.00,,,0.00,VWS V14.01,2013-08-30 01:18:00,
2013-08-29 21:23:00,86.3,74.5,29.91,WSW,248,0.0,0.0,68,0.00,,,0.00,VWS V14.01,2013-08-30 01:23:00,
2013-08-29 21:28:00,86.2,74.4,29.91,WSW,248,0.0,0.0,68,0.00,,,0.00,VWS V14.01,2013-08-30 01:28:00,
2013-08-29 21:33:00,86.0,74.7,29.91,WSW,247,0.0,0.0,69,0.00,,,0.00,VWS V14.01,2013-08-30 01:33:00,
2013-08-29 21:38:00,85.9,74.6,29.92,WSW,248,0.0,0.0,69,0.00,,,0.00,VWS V14.01,2013-08-30 01:38:00,
2013-08-29 21:43:00,85.7,74.8,29.92,WSW,247,0.0,1.0,70,0.00,,,0.00,VWS V14.01,2013-08-30 01:43:00,
2013-08-29 21:48:00,85.4,74.5,29.92,WSW,247,0.0,0.0,70,0.00,,,0.00,VWS V14.01,2013-08-30 01:48:00,
2013-08-29 21:53:00,85.1,73.8,29.92,WSW,248,0.0,0.0,69,0.00,,,0.00,VWS V14.01,2013-08-30 01:53:00,
2013-08-29 21:58:00,84.7,73.8,29.92,WSW,247,0.0,0.0,70,0.00,,,0.00,VWS V14.01,2013-08-30 01:58:00,
2013-08-29 22:03:00,84.4,73.6,29.92,WSW,248,0.0,1.0,70,0.00,,,0.00,VWS V14.01,2013-08-30 02:03:00,
2013-08-29 22:08:00,84.1,73.3,29.93,WSW,248,0.0,1.0,70,0.00,,,0.00,VWS V14.01,2013-08-30 02:08:00,
2013-08-29 22:13:00,83.9,73.5,29.93,WSW,248,0.0,1.0,71,0.00,,,0.00,VWS V14.01,2013-08-30 02:13:00,
2013-08-29 22:18:00,83.7,73.7,29.93,WSW,247,0.0,0.0,72,0.00,,,0.00,VWS V14.01,2013-08-30 02:18:00,
2013-08-29 22:23:00,83.6,73.6,29.93,WSW,248,0.0,1.0,72,0.00,,,0.00,VWS V14.01,2013-08-30 02:23:00,
2013-08-29 22:28:00,83.5,73.5,29.93,WSW,248,0.0,0.0,72,0.00,,,0.00,VWS V14.01,2013-08-30 02:28:00,
2013-08-29 22:33:00,83.5,73.9,29.93,WSW,248,0.0,1.0,73,0.00,,,0.00,VWS V14.01,2013-08-30 02:33:00,
2013-08-29 22:38:00,83.4,73.8,29.93,WSW,247,0.0,1.0,73,0.00,,,0.00,VWS V14.01,2013-08-30 02:38:00,
2013-08-29 22:43:00,83.4,73.8,29.93,WSW,247,0.0,1.0,73,0.00,,,0.00,VWS V14.01,2013-08-30 02:43:00,
2013-08-29 22:48:00,83.3,74.2,29.93,WSW,247,0.0,0.0,74,0.00,,,0.00,VWS V14.01,2013-08-30 02:48:00,
2013-08-29 22:53:00,83.3,74.2,29.93,WSW,248,0.0,1.0,74,0.00,,,0.00,VWS V14.01,2013-08-30 02:53:00,
2013-08-29 22:58:00,83.2,74.5,29.93,WSW,248,0.0,1.0,75,0.00,,,0.00,VWS V14.01,2013-08-30 02:58:00,
2013-08-29 23:03:00,83.1,74.4,29.93,WSW,248,1.0,1.0,75,0.00,,,0.00,VWS V14.01,2013-08-30 03:03:00,
2013-08-29 23:08:00,83.0,74.7,29.93,WSW,248,0.0,1.0,76,0.00,,,0.00,VWS V14.01,2013-08-30 03:08:00,
2013-08-29 23:13:00,82.9,74.6,29.94,WSW,248,0.0,0.0,76,0.00,,,0.00,VWS V14.01,2013-08-30 03:13:00,
2013-08-29 23:19:00,82.8,74.9,29.94,WSW,248,0.0,0.0,77,0.00,,,0.00,VWS V14.01,2013-08-30 03:19:00,
2013-08-29 23:25:00,82.7,74.8,29.94,WSW,248,0.0,0.0,77,0.00,,,0.00,VWS V14.01,2013-08-30 03:25:00,
2013-08-29 23:31:00,82.5,74.6,29.93,WSW,248,0.0,1.0,77,0.00,,,0.00,VWS V14.01,2013-08-30 03:31:00,
2013-08-29 23:37:00,82.4,74.9,29.93,WSW,247,0.0,1.0,78,0.00,,,0.00,VWS V14.01,2013-08-30 03:37:00,
2013-08-29 23:43:00,82.3,74.8,29.93,WSW,247,0.0,0.0,78,0.00,,,0.00,VWS V14.01,2013-08-30 03:43:00,
2013-08-29 23:48:00,82.2,74.7,29.93,WSW,247,0.0,0.0,78,0.00,,,0.00,VWS V14.01,2013-08-30 03:48:00,
2013-08-29 23:53:00,82.1,74.9,29.93,WSW,248,0.0,1.0,79,0.00,,,0.00,VWS V14.01,2013-08-30 03:53:00,
2013-08-29 23:58:00,82.0,74.8,29.93,WSW,248,0.0,1.0,79,0.00,,,0.00,VWS V14.01,2013-08-30 03:58:00,